User: anonymous   Login
Location: Obersdorf
(47.4079°N, 10.2781°E)
Time: 03:02:54
(UTC+01:00)
Language:

AO-109 - Orbit

View from above orbital plane
View from above orbital plane
View from above satellite
View from above satellite

Ground track
Ground track

The orbit data is extracted from the following two-line orbital elements,

1 47311U 21002C   21332.46250610  .00003047  00000-0  14025-3 0  9995
2 47311  60.6871  36.9165 0036016 130.3437 230.0806 15.22467588 47832
Epoch (UTC): 28 November 2021 11:06:00
Eccentricity: 0.0036016
inclination: 60.6871°
perigee height: 473 km
apogee height: 523 km
right ascension of ascending node: 36.9165°
argument of perigee: 130.3437°
revolutions per day: 15.22467588
mean anomaly at epoch: 230.0806°
orbit number at epoch: 4783

The dashed part of the orbit path shows where the satellite is in the earth's shadow,  

DLR